EUTELSAT 2-F
1 21803U 91083A   03052.80102402  .00000123  00000-0  10000-3 0  5257
2 21803   2.6051  89.0616 0003779 287.6256  84.7173  1.00281255 37039
TELECOM 2A 
1 21813U 91084A   03058.82451611 -.00000000  00000-0  00000+0 0   891
2 21813   1.4962  92.5088 0003268 146.2047 218.3612  1.00272591 39848
INMARSAT 2-F
1 21814U 91084B   03059.47614350  .00000093  00000-0  10000-3 0  6246
2 21814   1.7639  58.5027 0002733 288.6712 200.0719  1.00273723 40996
INSAT 2DR 
1 21894U 92010B   03058.74647552  .00000067  00000-0  10000-3 0  5782
2 21894   0.1888 101.1711 0038857 263.4828 115.9902  1.00273813 40160
GALAXY 5 
1 21906U 92013A   03059.37025207  .00000018  00000-0  10000-3 0  8831
2 21906   0.0313 238.7557 0001348 100.4763 186.7385  1.00271927 31844
GORIZONT 25 
1 21922U 92017A   03058.14460413 -.00000307  00000-0  00000+0 0  7206
2 21922   6.6597  61.2438 0002716 298.9778 347.9029  1.00264928 39896
TELECOM 2B 
1 21939U 92021A   03054.74079640  .00000117  00000-0  10000-3 0  6177
2 21939   1.9759  90.7229 0002962 227.2305 148.9793  1.00277779 32619
INMARSAT 2-F
1 21940U 92021B   03055.64438402 -.00000364  00000-0  10000-3 0  5730
2 21940   2.3921  19.1809 0002668 212.0827 263.7763  1.00264880 39743
PALAPA B4 
1 21964U 92027A   03054.10006933 -.00000372  00000-0  10000-3 0  3111
2 21964   0.0247  25.5683 0000426 199.4355  81.6109  1.00267137 39389
EUTELSAT 2-F
1 22028U 92041B   03057.90296856 -.00000117  00000-0  10000-3 0  3336
2 22028   1.7379  92.3742 0006202 237.6864 139.0226  1.00271809 31865
GORIZONT 26 
1 22041U 92043A   03060.09565579 -.00000136  00000-0  00000+0 0  4267
2 22041   6.4276  62.6410 0001960 322.7817 153.3289  1.00269729 38896
OPTUS B1 AUS
1 22087U 92054A   03057.65284008  .00000000  00000-0  10000-3 0  7685
2 22087   0.0216 254.1571 0003637  70.5085 226.4053  1.00269084 50062
SATCOM C4 
1 22096U 92057A   03059.37231668  .00000069  00000-0  00000+0 0   440
2 22096   0.0767 283.6895 0002480 117.4330 115.6358  1.00270165 40471
HISPASAT 1A 
1 22116U 92060A   03059.59540245 -.00000237  00000-0  00000+0 0  3592
2 22116   0.3672  97.5200 0002048 296.2333 308.3248  1.00268400 34968
SATCOM C3 
1 22117U 92060B   03059.49990461  .00000049  00000-0  10000-3 0  8603
2 22117   0.0286 310.1621 0002267  97.6011 159.1550  1.00273034 38306
DFS 3 
1 22175U 92066A   03058.88085649 -.00000023  00000-0  00000+0 0  5377
2 22175   1.0662  93.4697 0010764 251.9372 141.3070  0.99764967 35729
GORIZONT 27 
1 22245U 92082A   03059.19068462  .00000083  00000-0  10000-3 0  4179
2 22245   6.2572  64.6256 0003667 349.3206 188.8973  1.00273091 41885
SUPERBIRD A1
1 22253U 92084A   03059.53156161 -.00000148  00000-0  10000-3 0  5941
2 22253   0.0500 294.2644 0004932  78.0418 134.9569  1.00272564 37226
COSMOS 2224 
1 22269U 92088A   03058.41615152 -.00000383  00000-0  00000-0 0  9376
2 22269   5.2793  66.1530 0003816 353.4400   6.7505  1.00194144 36834
TDRS F6 
1 22314U 93003B   03059.01997108 -.00000298  00000-0  10000-3 0  4572
2 22314   3.5474  84.0780 0002291 263.0303 130.5373  1.00270995 37112
RADUGA 29 
1 22557U 93013A   03058.91884689  .00000051  00000-0  00000+0 0  2208
2 22557   6.0151  66.4780 0001951 287.3825 145.3920  1.00271197 36357
ASTRA 1C 
1 22653U 93031A   03057.00000000  .00000104  00000-0  10000-3 0  7895
2 22653   0.0122 319.8851 0002995  65.1991 149.5045  1.00273184 30968
HISPASAT 1B 
1 22723U 93048A   03058.60306453  .00000000  00000-0  10000-3 0   976
2 22723   0.0141 260.1297 0003680  36.0323  47.8495  1.00265404 34911
INSAT 2B 
1 22724U 93048B   03059.19188828 -.00000374  00000-0  10000-3 0  3345
2 22724   2.1338  90.1864 0002549 282.9453 324.9263  1.00269767 35495
ACTS 
1 22796U 93058B   03058.43707919 -.00000108  00000-0  00000+0 0  7635
2 22796   3.7996  82.8056 0004352 283.9819 202.2099  1.00271801 41565
RADUGA 30 
1 22836U 93062A   03059.68509973 -.00000067  00000-0  00000+0 0  3093
2 22836   5.6484  68.6056 0003068 325.4748  81.2615  1.00272693 34450
INTELSAT 701
1 22871U 93066A   03058.39037593  .00000034  00000-0  10000-3 0  1846
2 22871   0.0315 290.3158 0002966  65.7200 121.2919  1.00273767 34131
GORIZONT 28 
1 22880U 93069A   03059.84653414 -.00000302  00000-0  00000+0 0  2997
2 22880   5.6081  68.6489 0001830 330.5992 160.3857  1.00269194 34207
SOLIDARIDAD 
1 22911U 93073A   03057.12366226 -.00000079  00000-0  10000-3 0  4301
2 22911   2.1212  90.5622 0004229 324.6143  35.6573  1.00271889 32560
METEOSAT 6 
1 22912U 93073B   03058.88282409  .00000041  00000-0  00000+0 0  6996
2 22912   2.6968  82.4029 0011079 312.6793  89.2026  1.00266905 32396
NATO 4B 
1 22921U 93076A   03055.67324113 -.00000173  00000-0  00000+0 0  2838
2 22921   2.6398  56.5490 0003348 283.1280  36.6035  1.00271128 33840
DBS 
1 22930U 93078A   03060.22738029 -.00000077  00000-0  00000+0 0  4332
2 22930   0.0161 212.3971 0002433 141.4486 136.7837  1.00272116 41551
THAICOM 1 
1 22931U 93078B   03058.43860896 -.00000381  00000-0  00000+0 0  2090
2 22931   0.0542  44.7697 0001407 251.3294 138.5621  1.00266125 33246
GALAXY 1R 
1 23016U 94013A   03058.28356780  .00000061  00000-0  10000-3 0  3337
2 23016   0.0254 154.3610 0001291 214.6835 116.6893  1.00270756 32655
GOES 8 
1 23051U 94022A   03059.38761200 -.00000270  00000-0  00000+0 0  6280
2 23051   0.3214 102.6554 0001121 289.8740 190.1647  1.00274243 39901
INTELSAT 702
1 23124U 94034A   03057.81334757  .00000068  00000-0  00000+0 0  1383
2 23124   0.0272 120.2477 0000861 106.7378 276.9955  1.00271940 46046
PAS 2 
1 23175U 94040A   03057.58492884 -.00000049  00000-0  00000+0 0  2590
2 23175   0.0223 228.8319 0002410 135.4629 171.2320  1.00270803 30940
BS-3N 
1 23176U 94040B   03052.62617506 -.00000357  00000-0  00000+0 0  9501
2 23176   0.0676 282.1576 0000264 214.0528 350.2160  1.00268287 31404
APSTAR 1 
1 23185U 94043A   03060.17615108 -.00000313  00000-0  00000+0 0  4001
2 23185   0.0057 195.3276 0000806 149.8078  14.8311  1.00273252 31528
DIRECTV 2 
1 23192U 94047A   03058.18004375 -.00000134  00000-0  00000-0 0  2559
2 23192   0.0185 223.8815 0002210 114.9278 141.8251  1.00271506 41479
BRASILSAT B1
1 23199U 94049A   03060.13893955 -.00000284  00000-0  10000-3 0  1724
2 23199   0.0251 182.2422 0003347 142.9594 173.3337  1.00271656 42210
TURKSAT 1B 
1 23200U 94049B   03056.75903175  .00000139  00000-0  10000-3 0  8978
2 23200   0.0475 117.8365 0002750 232.9298 108.9243  1.00273953 30791
OPTUS B3 
1 23227U 94055A   03060.47244241 -.00000166  00000-0  10000-3 0  1503
2 23227   0.0242 280.4394 0002888  39.0860 165.3773  1.00271102 31143
NSS 703 
1 23305U 94064A   03058.74689235  .00000053  00000-0  10000-3 0  8223
2 23305   0.0079 173.1452 0008450 185.5678 124.2399  1.00273091 30850
SOLIDARIDAD 
1 23313U 94065A   03058.52825608 -.00000056  00000-0  10000-3 0  2245
2 23313   0.0181 231.6639 0002369  96.1082 266.3260  1.00272015 30714
THAICOM 2 
1 23314U 94065B   03056.66085066 -.00000136  00000-0  10000-3 0  9599
2 23314   0.0459  34.7021 0005389 263.7823 172.9894  1.00271066 30675
EXPRESS 1 
1 23319U 94067A   03058.98998863 -.00000263  00000-0  00000+0 0  8574
2 23319   2.3187  88.9381 0002570 341.8360  18.5290  0.99824530 30645
ASTRA 1D 
1 23331U 94070A   03058.80981258  .00000120  00000-0  00000+0 0  8215
2 23331   0.0536 217.2808 0014898 109.5945 145.9501  1.00274316 30966
ORION 1 
1 23413U 94079A   03059.97502874 -.00000270  00000-0  00000+0 0  8720
2 23413   0.0272  95.1569 0002252 269.7694 106.9187  1.00270345 29819
RADUGA 32 
1 23448U 94087A   03056.57215044 -.00000094  00000-0  10000-3 0  3881
2 23448   4.8231  74.3270 0004229  23.8356 336.3598  1.00283224 47581
INTELSAT 704
1 23461U 95001A   03056.67058087 -.00000017  00000-0  10000-3 0  8886
2 23461   0.0395 103.6227 0005302 249.3115 109.5722  1.00272114 29804
GMS 5 
1 23522U 95011B   03058.14729046 -.00000298  00000-0  00000+0 0  1226
2 23522   1.7817  83.2798 0000349  99.2482 167.2931  1.00274469 28975
INTELSAT 705
1 23528U 95013A   03059.02137733 -.00000302  00000-0  00000+0 0  1145
2 23528   0.0361 289.4976 0003572   2.7939 182.8053  1.00269194 29004
BRASILSAT B2
1 23536U 95016A   03059.43023433 -.00000296  00000-0  10000-3 0   419
2 23536   0.0512 225.4425 0001503 101.7123 280.5425  1.00269713 29070
HOT BIRD 1 
1 23537U 95016B   03055.93642088  .00000074  00000-0  10000-3 0  5388
2 23537   0.0930 158.4148 0007489 128.2319 217.9136  1.00274434 29037
AMSC 1 
1 23553U 95019A   03060.39254728 -.00000133  00000-0  00000+0 0  1620
2 23553   0.0154 240.2887 0002343  91.9026 226.8996  1.00270818 28896
INTELSAT 706
1 23571U 95023A   03058.22257120 -.00000303  00000-0  10000-3 0  8657
2 23571   0.0277 268.7542 0002320  66.6869 208.2892  1.00272104 28488
GOES 9 
1 23581U 95025A   03059.39412271  .00000087  00000-0  00000+0 0  5378
2 23581   0.2483 277.4890 0011956 247.2700 330.7497  1.00061469 28469
TDRS F7 
1 23613U 95035B   03060.46201156  .00000078  00000-0  10000-3 0  2948
2 23613   5.8239  69.6641 0002720 262.6643 181.5714  1.00266379 27938
PAS 4 
1 23636U 95040A   03055.66421852 -.00000071  00000-0  00000+0 0  8329
2 23636   0.0603 113.2526 0003511 178.9734 173.0155  1.00272959 27668
KOREASAT 1 
1 23639U 95041A   03053.82940809  .00000117  00000-0  10000-3 0  7590
2 23639   3.2260  85.4445 0001729 194.5985 218.1014  1.00273497 27737
JCSAT 3 
1 23649U 95043A   03053.60930899 -.00000353  00000-0  10000-3 0  7556
2 23649   0.0370 272.1843 0000941  79.7719 147.4603  1.00268459 27253
